CAPE
0 0 12 23 0 0 0 0 0 0 0 0 0 0 0 0 0 0 0 0 0 0 0 0 0 0 0 0 0 0 0 4 288 403 377 426 347 391 327 375 327 628 576
0 0 12 48 0 0 0 0 0 0 0 0 0 0 0 0 0 0 0 0 0 0 0 0 0 0 0 0 0 0 0 0 124 359 505 291 454 264 368 417 398 678 597
0 0 29 10 0 0 0 0 0 0 0 0 0 0 0 0 0 0 0 0 0 0 0 0 0 0 0 2 9 0 2 0 0 317 465 384 344 159 286 484 524 634 297
0 0 0 0 0 0 0 0 0 0 1 2 1 23 46 63 10 0 0 1 4 4 7 4 0 1 0 0 23 35 0 0 0 245 338 338 243 180 221 695 482 177 300
0 0 0 9 0 0 48 45 46 59 92 208 308 329 144 178 54 0 0 0 7 24 15 10 13 4 2 0 5 104 0 0 0 67 170 286 248 209 194 529 583 579 673
0 0 0 25 46 141 160 87 114 206 264 410 518 599 239 154 97 57 58 45 61 45 19 16 13 26 5 0 0 18 76 4 0 0 71 243 275 262 184 218 385 674 490
0 1 19 133 221 264 212 104 136 186 146 630 748 626 379 211 101 42 37 49 77 50 17 21 21 29 68 37 5 62 16 24 0 0 16 181 272 264 291 337 308 144 99
0 9 56 324 320 324 295 329 455 319 457 928 615 276 153 72 66 57 44 28 19 25 26 39 44 47 62 59 56 128 64 129 22 0 41 132 249 358 327 259 371 230 333
0 20 128 421 423 356 299 498 367 400 409 56 27 0 0 1 2 0 0 2 7 21 32 57 35 36 35 61 69 123 70 189 129 0 2 184 287 352 439 269 374 208 135
0 77 197 197 295 258 292 313 94 71 11 11 0 0 0 0 10 13 5 5 9 4 10 22 23 9 63 71 103 97 138 248 212 121 0 205 465 483 573 340 272 137 38
0 14 21 2 25 12 10 22 96 92 73 5 0 0 0 0 0 0 0 0 2 20 63 49 24 54 87 100 130 214 167 223 196 240 87 305 647 558 597 595 215 25 130
0 0 0 0 0 0 0 0 0 7 17 22 21 0 0 0 0 0 0 0 2 6 27 90 75 123 160 131 162 252 107 193 225 216 152 317 643 701 733 660 186 274 124
0 0 0 0 0 0 0 0 0 4 0 0 0 0 0 0 0 0 0 0 0 0 0 0 7 141 173 136 126 67 54 191 233 307 317 569 752 856 709 765 455 338 258
0 0 0 0 0 0 0 0 0 0 0 0 0 0 0 0 0 0 0 0 0 0 0 0 0 54 183 182 164 38 0 67 282 405 334 763 724 891 839 755 613 318 171
0 0 0 0 0 0 0 0 0 0 0 0 0 0 0 0 0 0 0 0 0 0 0 0 0 6 96 130 75 20 0 0 271 403 356 796 915 875 844 802 642 340 239
0 0 0 0 0 0 0 0 2 0 0 0 0 0 0 0 0 0 1 2 0 0 0 0 0 35 117 80 190 88 0 0 204 333 384 712 1051 802 889 776 700 491 276
0 0 0 0 0 12 0 0 0 0 0 0 0 0 0 0 0 0 0 0 0 0 0 0 0 25 69 132 89 5 0 0 179 334 375 740 898 896 828 722 572 454 320
0 0 0 2 8 0 0 1 0 0 0 0 0 0 0 0 0 0 0 0 0 0 0 0 0 12 113 110 93 90 47 6 376 363 598 785 867 851 714 763 499 411 194
0 0 0 0 0 0 0 0 0 0 0 0 0 0 0 0 0 0 0 0 0 0 0 0 0 29 67 114 114 151 38 296 530 558 641 678 745 737 673 626 493 343 186
0 0 0 0 0 0 0 0 0 0 0 0 0 0 1 4 0 0 0 0 0 0 0 0 0 31 97 127 114 82 132 190 376 510 583 646 584 566 458 445 348 198 166
0 0 0 0 0 0 3 28 37 54 0 0 0 0 15 14 0 0 0 0 0 0 0 0 0 40 60 67 59 77 123 80 187 453 338 418 452 404 353 300 194 174 116
1 0 0 0 0 18 161 12 71 13 0 0 0 0 5 21 6 2 0 9 0 0 0 0 0 15 23 35 25 22 15 48 141 346 505 450 398 201 193 173 142 121 73
0 0 0 0 4 185 32 6 3 0 0 0 0 0 0 18 27 17 0 0 1 0 0 0 0 4 25 7 11 3 9 5 84 170 219 423 335 182 101 73 85 65 27
0 0 0 0 69 107 52 9 0 0 0 0 0 0 0 12 33 21 47 16 0 0 0 0 0 19 26 18 29 59 17 56 20 57 132 191 201 109 67 57 20 8 20
0 0 0 4 137 71 59 4 0 0 0 0 0 0 0 1 27 49 0 0 0 0 7 0 0 1 9 25 53 37 26 62 51 26 19 50 94 38 26 17 1 1 12
0 0 0 30 92 65 37 0 0 0 0 0 0 0 0 5 21 29 23 1 0 3 0 0 0 1 5 25 31 23 52 57 64 74 85 22 17 3 2 2 3 2 5
CIN
-0 -0 -479 -360 -0 -0 -0 -0 -0 -0 -0 -0 -0 -0 -0 -0 -0 -0 -0 -0 -0 -0 -0 -0 -0 -0 -0 -0 -0 -0 -0 -31 -32 -24 -17 -12 -6 -10 -17 -18 -21 -2 -1
-0 -0 -408 -335 -0 -0 -0 -0 -0 -0 -0 -0 -0 -0 -0 -0 -0 -0 -0 -0 -0 -0 -0 -0 -0 -0 -0 -0 -0 -0 -0 -0 -87 -19 -12 -22 -7 -11 -9 -11 -20 -0 -6
-0 -0 -382 -214 -0 -0 -0 -0 -0 -0 -0 -0 -0 -0 -0 -0 -0 -0 -0 -0 -0 -0 -0 -0 -0 -0 -0 -0 -0 -0 -0 -0 -0 -9 -12 -10 -15 -22 -10 -4 -8 -4 -42
-0 -0 -0 -0 -0 -0 -0 -0 -0 -0 -102 -92 -85 -128 -109 -143 -53 -0 -0 -0 -0 -0 -0 -0 -0 -0 -0 -0 -85 -32 -0 -0 -0 -7 -15 -19 -15 -16 -11 -0 -6 -61 -41
-0 -0 -0 -277 -0 -0 -213 -179 -160 -131 -91 -22 -4 -0 -23 -46 -105 -0 -0 -0 -0 -0 -0 -0 -0 -0 -0 -0 -0 -69 -0 -0 -0 -35 -27 -30 -24 -19 -20 -2 -0 -1 -0
-0 -0 -0 -362 -332 -225 -181 -167 -145 -95 -59 -7 -0 -0 -8 -43 -95 -1 -0 -0 -0 -0 -0 -0 -0 -0 -1 -0 -0 -0 -98 -0 -0 -0 -53 -19 -23 -24 -27 -19 -12 -0 -8
-0 -100 -457 -325 -272 -237 -201 -222 -178 -120 -94 -7 -0 -0 -3 -32 -79 -0 -0 -0 -0 -0 -0 -0 -0 -0 -0 -1 -2 -10 -0 -1 -0 -0 -41 -18 -22 -28 -23 -12 -14 -27 -55
-0 -547 -442 -302 -259 -216 -199 -183 -120 -114 -49 -0 -3 -15 -73 -52 -60 -0 -0 -0 -0 -0 -0 -0 -0 -1 -1 -1 -1 -7 -10 -2 -0 -0 -61 -26 -24 -16 -26 -20 -7 -23 -15
-0 -464 -410 -283 -245 -212 -205 -151 -150 -73 -23 -97 -137 -2 -0 -2 -3 -0 -0 -0 -0 -0 -0 -0 -0 -1 -0 -1 -38 -8 -29 -2 -4 -0 -12 -34 -22 -10 -5 -23 -4 -23 -33
-0 -442 -402 -372 -312 -285 -244 -187 -192 -136 -198 -170 -0 -0 -0 -0 -14 -2 -0 -0 -0 -0 -0 -1 -1 -0 -1 -66 -54 -45 -15 -1 -1 -13 -0 -41 -11 -4 -1 -19 -9 -14 -46
-0 -557 -371 -93 -500 -497 -456 -365 -202 -198 -198 -291 -0 -0 -0 -0 -0 -0 -0 -0 -0 -0 -0 -0 -0 -0 -128 -76 -39 -9 -9 -5 -9 -15 -68 -38 -3 -2 -2 -0 -20 -76 -2
-0 -0 -0 -0 -0 -0 -0 -0 -0 -399 -336 -292 -284 -13 -104 -0 -0 -0 -0 -0 -0 -0 -0 -108 -67 -71 -38 -28 -14 -1 -17 -10 -16 -31 -59 -47 -5 -0 -0 -0 -31 -21 -14
-0 -0 -0 -0 -0 -0 -0 -0 -0 -511 -64 -0 -0 -0 -0 -0 -0 -0 -0 -0 -0 -0 -0 -0 -1 -10 -2 -4 -4 -18 -22 -15 -24 -30 -47 -24 -3 -0 -0 -0 -14 -0 -1
-0 -0 -0 -0 -0 -0 -0 -0 -0 -0 -0 -0 -0 -0 -0 -0 -0 -0 -0 -0 -0 -0 -0 -0 -0 -19 -11 -8 -13 -43 -0 -43 -29 -30 -61 -16 -15 -0 -0 -0 -0 -11 -20
-0 -0 -0 -0 -0 -0 -0 -0 -0 -0 -0 -0 -0 -0 -0 -0 -0 -0 -0 -0 -15 -0 -0 -0 -0 -3 -11 -17 -32 -60 -0 -0 -44 -40 -76 -22 -5 -2 -0 -0 -0 -1 -2
-0 -0 -0 -0 -0 -0 -0 -0 -289 -0 -0 -0 -0 -0 -0 -0 -0 -0 -52 -45 -0 -0 -0 -0 -0 -26 -25 -35 -18 -52 -0 -69 -68 -60 -79 -39 -1 -9 -0 -0 -0 -0 -0
-0 -0 -0 -0 -0 -534 -0 -0 -0 -0 -0 -0 -0 -0 -0 -0 -0 -0 -0 -0 -0 -0 -0 -0 -0 -35 -29 -34 -60 -95 -59 -0 -76 -69 -70 -39 -11 -7 -8 -0 -0 -0 -0
-0 -0 -0 -269 -604 -0 -0 -127 -0 -0 -0 -0 -0 -0 -0 -0 -0 -0 -0 -0 -0 -0 -0 -0 -0 -35 -35 -49 -44 -62 -71 -81 -51 -58 -38 -38 -13 -14 -1 -0 -1 -0 -0
-0 -0 -0 -0 -0 -0 -15 -0 -0 -0 -0 -79 -0 -0 -0 -26 -0 -0 -0 -0 -0 -0 -0 -0 -0 -49 -49 -52 -42 -31 -52 -33 -26 -36 -30 -33 -22 -22 -10 -1 -0 -0 -1
-0 -0 -0 -0 -0 -0 -0 -0 -0 -0 -0 -0 -0 -0 -12 -121 -0 -0 -0 -0 -0 -0 -0 -0 -0 -43 -33 -29 -32 -36 -37 -42 -33 -37 -28 -33 -35 -37 -41 -32 -5 -0 -0
-0 -0 -0 -0 -0 -0 -401 -296 -247 -189 -0 -0 -0 -0 -41 -73 -31 -0 -0 -0 -0 -0 -0 -0 -0 -30 -34 -47 -46 -27 -33 -39 -40 -38 -60 -58 -35 -30 -41 -20 -5 -2 -0
-418 -0 -0 -0 -0 -339 -268 -295 -222 -227 -0 -0 -0 -0 -28 -31 -64 -90 -0 -49 -11 -0 -0 -0 -0 -55 -46 -39 -26 -17 -7 -16 -22 -15 -8 -16 -19 -45 -35 -27 -19 -0 -0
-0 -0 -0 -0 -121 -283 -297 -281 -185 -0 -0 -0 -0 -0 -0 -46 -15 -35 -0 -0 -13 -0 -0 -0 -0 -48 -42 -64 -49 -2 -12 -3 -29 -10 -11 -0 -2 -32 -56 -54 -51 -17 -3
-0 -0 -0 -0 -344 -275 -243 -230 -0 -0 -0 -0 -0 -0 -0 -64 -28 -35 -43 -73 -0 -0 -0 -0 -0 -42 -35 -25 -25 -51 -86 -76 -51 -3 -2 -1 -1 -32 -62 -45 -23 -8 -8
-0 -0 -0 -128 -263 -243 -198 -141 -0 -0 -0 -0 -0 -0 -0 -54 -32 -29 -0 -0 -0 -0 -84 -0 -12 -11 -50 -37 -39 -52 -55 -64 -34 -27 -23 -0 -5 -30 -44 -35 -0 -0 -0
-0 -0 -0 -337 -233 -199 -207 -0 -0 -0 -0 -0 -0 -0 -0 -32 -35 -36 -53 -13 -0 -100 -0 -0 -0 -41 -57 -65 -59 -55 -54 -58 -37 -39 -26 -16 -1 -32 -10 -0 -33 -23 -15
Wind_Speed
2 6 4 4 4 6 7 8 9 10 11 11 12 12 12 12 12 14 15 17 18 18 18 18 18 19 19 21 22 22 23 24 25 25 22 17 14 11 7 4 4 5 7
5 5 4 4 4 5 6 7 9 10 10 11 12 12 12 13 13 15 16 17 18 19 19 19 19 19 20 21 22 23 23 24 25 26 23 21 18 14 9 4 1 3 6
7 6 4 3 3 5 6 8 9 10 11 11 13 15 15 15 15 17 18 18 18 19 19 19 18 19 20 21 21 23 25 26 27 26 25 23 19 14 11 7 3 1 2
9 7 5 3 4 6 7 8 10 11 12 12 13 14 14 15 18 20 21 20 19 19 19 19 19 19 20 21 23 22 24 26 27 28 27 24 22 17 12 9 6 4 1
8 7 5 4 5 6 7 7 10 11 12 14 14 14 15 17 17 18 20 20 19 17 19 22 21 21 21 22 23 24 23 25 27 28 27 25 24 21 15 11 8 4 4
9 7 6 6 5 5 7 9 11 12 13 14 16 15 16 18 18 19 19 19 18 19 21 22 24 22 22 24 24 24 24 24 25 28 27 26 25 23 18 13 8 6 5
8 7 6 5 5 5 6 9 10 12 16 17 16 17 18 18 19 19 19 19 17 18 19 20 20 20 21 24 23 24 25 23 24 27 28 28 28 26 21 18 13 8 7
6 6 5 4 4 5 6 8 10 12 13 15 15 16 17 19 21 21 20 20 20 22 22 22 23 21 22 22 23 23 25 24 24 26 28 28 29 30 24 22 18 13 10
6 6 5 4 3 4 6 9 13 15 15 16 16 16 17 19 19 19 19 21 22 23 23 22 23 24 25 24 22 23 24 25 25 26 28 29 29 30 26 21 18 14 11
4 4 4 4 4 6 9 11 13 14 18 19 18 17 17 17 17 18 18 19 21 21 23 23 21 23 24 23 22 23 24 25 26 26 29 30 29 27 25 22 19 17 14
5 5 4 5 6 8 11 12 13 17 17 16 16 16 15 16 16 15 16 18 19 20 21 21 20 20 21 21 20 21 24 25 26 27 28 30 30 28 26 20 18 18 14
5 6 5 5 6 9 12 15 17 17 19 17 16 16 15 16 17 15 16 17 19 19 22 23 17 19 19 18 20 21 22 24 26 27 28 31 30 28 24 22 16 17 22
2 4 5 5 6 9 13 16 18 17 17 16 13 11 12 17 17 15 16 18 18 19 20 21 20 16 15 14 15 19 23 24 26 27 29 30 29 26 22 18 16 18 15
2 4 4 4 6 9 13 14 14 16 16 16 13 10 12 15 14 15 14 15 16 17 17 18 18 15 13 13 14 17 22 25 27 27 29 30 28 25 20 14 12 13 11
4 3 2 3 6 9 11 12 14 15 15 15 14 14 14 14 15 14 12 15 14 14 16 17 17 14 12 14 16 19 25 28 28 27 28 30 29 25 21 15 11 10 12
4 2 1 3 6 7 9 11 14 15 17 15 14 14 13 13 15 14 12 10 11 11 16 16 13 11 10 13 17 24 28 28 29 29 29 29 30 25 21 15 10 11 14
5 2 1 3 5 7 10 12 15 16 17 15 16 16 14 13 13 13 10 7 8 11 12 12 8 10 10 14 23 26 28 28 29 29 30 29 28 22 20 17 17 13 13
3 1 2 5 5 8 11 15 17 18 17 16 16 16 15 13 11 11 7 5 7 9 9 7 7 3 9 23 27 28 28 28 28 28 28 27 24 20 22 18 12 11 9
3 2 2 4 6 10 13 16 18 18 17 17 15 15 17 16 14 9 4 3 6 8 8 4 5 1 20 28 27 28 26 26 26 25 27 24 21 18 19 14 10 13 14
5 2 3 6 9 12 15 17 19 19 18 17 15 15 16 13 12 7 5 5 6 8 6 3 1 4 23 25 24 22 22 25 24 24 25 22 21 19 19 14 12 16 11
4 3 4 6 10 13 16 17 20 22 21 19 15 12 11 12 11 6 5 6 7 6 7 9 1 23 24 22 21 19 19 21 21 22 23 22 22 21 17 15 14 14 9
4 2 5 7 9 13 15 17 19 20 21 20 16 12 13 12 9 7 5 6 7 8 8 13 16 25 24 24 23 21 24 21 18 19 23 23 22 18 17 13 12 13 14
5 3 5 7 10 13 15 18 19 21 22 23 20 17 18 14 10 8 9 9 10 12 13 20 28 26 17 27 26 24 23 24 21 22 25 25 22 18 16 13 12 14 18
5 5 6 8 10 12 15 18 20 21 24 22 19 17 18 17 13 11 12 13 15 16 19 30 28 24 19 28 25 23 20 19 24 24 26 27 15 25 12 13 9 11 12
7 6 7 8 9 12 14 17 19 20 21 20 20 18 17 15 14 14 14 15 19 21 28 30 28 26 22 24 28 22 19 19 20 25 29 26 28 16 4 6 5 3 12
8 7 8 9 10 11 13 16 18 20 21 22 21 20 17 15 14 15 16 19 22 25 28 30 29 27 24 23 25 26 24 25 22 22 22 23 19 17 5 6 7 9 7
Wind_Direction
127 33 105 80 48 25 15 13 9 4 357 352 349 346 345 343 341 337 332 328 326 324 321 316 311 306 301 295 292 289 286 283 281 280 279 279 281 283 295 317 10 33 43
82 58 103 67 53 32 21 13 4 357 352 346 341 337 335 334 332 329 325 322 321 318 318 317 313 306 301 297 291 287 285 282 281 277 275 275 273 273 273 279 345 46 68
69 60 76 60 48 24 10 0 356 350 346 341 335 330 327 325 323 319 317 317 317 315 314 314 313 306 300 296 292 286 281 279 277 277 272 270 273 269 264 258 243 144 60
60 69 73 83 42 20 10 358 349 345 340 336 332 328 327 325 319 315 313 312 313 313 311 309 309 306 300 293 291 288 281 277 275 274 270 267 266 267 260 249 243 249 203
61 75 72 76 46 30 22 16 358 347 341 334 330 326 323 320 316 315 312 312 312 311 308 303 301 300 299 293 288 286 283 278 274 272 270 263 260 265 261 251 235 199 196
67 68 66 88 73 49 27 11 2 352 344 337 329 325 322 320 316 313 311 311 308 307 302 299 297 296 294 289 284 284 282 278 274 270 269 262 257 260 258 252 226 191 206
67 64 71 94 79 61 40 20 10 355 343 337 333 327 324 323 318 314 312 309 307 304 302 300 296 294 291 286 285 282 279 278 276 269 267 261 256 254 256 251 239 219 212
63 58 55 78 57 27 19 10 4 359 352 346 340 335 332 327 321 316 312 309 306 302 300 297 294 291 289 286 283 281 277 275 274 269 265 261 256 250 252 250 244 239 232
55 72 63 45 43 43 15 359 352 347 346 344 341 338 334 331 329 326 319 313 307 303 300 298 294 289 286 282 279 279 276 272 270 269 263 260 257 251 249 248 242 238 231
68 59 51 41 32 10 359 355 350 346 340 338 338 339 337 336 335 333 327 323 315 309 304 299 293 287 283 280 275 274 273 270 267 266 261 257 256 253 248 245 242 239 231
21 10 22 18 11 358 354 355 352 345 344 342 340 339 338 338 339 340 338 328 321 313 310 303 297 288 282 277 271 270 272 268 264 263 259 255 252 251 248 243 240 236 245
344 342 344 352 3 358 354 351 349 348 346 344 340 338 338 336 336 341 338 333 323 316 310 310 301 292 283 276 268 267 270 267 261 260 256 252 250 249 246 234 231 247 244
304 350 352 350 4 1 353 353 353 352 351 349 346 345 340 333 334 339 340 334 329 324 312 308 306 296 286 274 267 268 267 264 260 256 253 249 247 245 241 232 228 230 234
253 332 351 13 12 3 358 359 1 359 359 358 357 355 343 334 335 333 337 339 334 329 323 312 306 298 285 275 268 269 264 261 257 253 249 246 244 243 239 224 214 234 229
283 332 349 18 9 2 3 3 1 0 0 358 357 350 343 337 332 331 336 339 339 334 326 313 305 298 283 274 269 268 257 253 252 249 246 244 241 243 241 225 218 213 222
292 254 351 7 13 13 6 2 360 1 357 356 357 355 353 344 335 332 332 337 340 339 328 318 309 299 280 270 266 259 250 249 247 245 243 242 240 243 241 229 207 218 228
295 332 11 20 19 10 2 1 358 358 357 355 355 355 352 349 340 336 339 340 345 339 337 326 315 298 278 268 256 250 245 245 243 240 239 239 241 242 238 235 241 227 221
286 188 40 9 13 5 3 360 359 358 359 357 355 355 356 353 354 347 348 346 350 345 348 338 308 294 270 247 243 240 241 243 237 234 236 238 240 242 241 240 228 218 194
196 157 24 17 7 1 360 359 359 360 2 2 1 356 355 353 354 357 8 23 1 356 354 355 305 285 249 234 236 235 241 234 234 234 232 237 241 243 240 232 214 225 230
170 137 32 12 4 1 359 359 1 2 3 1 0 358 360 9 9 12 16 20 16 8 10 64 51 280 237 232 233 237 240 231 236 234 232 236 240 241 238 233 223 233 220
164 130 12 12 8 4 360 0 1 359 2 3 5 10 23 20 24 32 42 24 29 58 94 122 25 228 225 230 230 234 236 235 237 235 235 236 237 240 244 235 231 233 198
156 106 21 19 12 5 5 4 4 5 5 9 18 27 22 20 29 43 73 51 66 84 86 128 236 216 224 223 225 225 219 230 237 239 233 234 235 242 238 230 228 228 229
133 76 45 29 18 12 11 7 7 7 7 9 17 23 16 28 44 76 103 105 110 113 113 138 210 214 235 220 218 216 217 223 233 235 229 231 235 240 240 239 238 234 225
109 74 55 35 24 19 13 8 7 9 6 15 19 27 25 30 61 76 97 105 117 114 129 193 204 216 230 206 212 223 232 231 225 228 226 225 241 229 238 245 252 243 199
96 74 51 42 34 21 15 14 14 12 18 25 22 29 30 48 74 91 84 94 122 134 177 193 201 203 219 212 207 223 233 239 230 220 214 222 220 236 194 230 241 166 122
87 67 63 46 38 30 28 24 22 18 23 23 25 28 37 50 82 91 98 123 141 161 190 198 203 203 212 217 217 219 219 221 225 218 218 221 221 226 182 120 210 200 169